Wind_Speed
28 29 30 31 31 32 32 32 31 29 26 24 23 19 17 19 19 19 18 16 15 13 12 11 11 11 11 11 11 13 15 17 19 20 22 24 26 27 27 27 26 26 25 24 23 22 21 20 20 20 21 21 20 20 19 17 16 15 15 15 16 16 17
24 26 29 31 32 33 32 32 31 29 26 24 23 22 20 20 20 20 19 18 17 16 14 13 12 13 13 13 13 14 15 17 19 20 23 25 27 28 28 28 27 26 25 23 22 21 20 20 20 21 21 22 21 20 19 17 15 15 15 15 16 17 18
22 25 28 30 32 32 32 31 30 28 25 23 22 23 23 21 21 22 21 20 19 18 17 16 15 15 15 15 15 15 16 18 19 20 23 25 28 29 30 29 28 27 25 24 22 20 20 20 21 21 21 21 21 20 20 18 17 16 16 16 16 17 18
20 25 28 29 30 31 31 31 30 27 24 21 21 22 23 23 22 22 24 24 22 21 19 18 17 17 18 18 18 18 18 19 19 21 23 26 29 30 31 31 29 27 25 24 22 21 20 20 20 21 21 20 20 20 19 19 18 18 17 16 16 17 17
15 21 27 29 31 31 31 32 33 31 27 24 23 22 23 24 24 24 25 27 26 23 22 22 20 20 20 21 20 20 20 20 20 21 24 27 29 31 32 32 30 28 25 24 22 21 21 20 20 20 20 20 20 19 19 19 19 19 18 17 16 17 18
12 17 23 27 30 31 32 33 33 32 30 28 26 24 23 25 27 27 27 29 29 27 25 24 23 22 23 23 22 22 22 21 20 21 24 27 30 32 33 32 30 28 26 24 22 21 20 20 19 20 20 20 19 19 19 19 19 19 18 17 17 18 18
11 15 19 23 25 28 30 30 30 29 28 29 28 26 25 26 29 29 28 30 31 30 28 26 25 25 25 25 24 23 22 21 21 23 25 27 30 32 33 32 30 28 26 24 22 21 20 19 18 18 19 19 19 19 19 20 19 19 18 18 18 19 20
10 13 17 21 21 22 23 25 26 26 27 27 25 23 23 26 28 30 29 30 32 33 31 28 28 27 27 27 26 25 24 23 22 25 27 27 29 32 33 32 31 28 26 24 22 21 20 19 18 18 18 19 19 18 19 20 20 19 18 19 19 20 21
9 11 14 17 19 20 21 22 23 24 24 22 19 19 21 25 28 29 29 30 33 35 34 31 30 29 29 30 28 27 26 23 23 26 27 27 29 32 33 31 29 28 27 26 25 23 21 20 19 19 19 19 19 17 17 18 19 19 18 19 20 21 22
9 10 11 14 17 19 20 21 22 21 20 17 16 18 21 24 27 28 29 29 31 35 36 35 32 31 32 32 31 29 26 23 24 27 27 27 29 32 32 30 29 30 30 29 27 24 23 22 21 21 20 20 19 19 17 17 18 19 19 20 20 21 22
9 9 12 13 15 17 19 20 19 18 16 14 15 18 21 23 24 26 27 28 30 33 35 36 34 33 34 35 33 29 25 24 27 27 26 27 30 31 31 31 31 32 30 28 26 23 22 22 22 22 22 22 21 20 19 18 18 19 19 20 21 21 22
9 8 10 11 14 18 19 20 18 16 14 14 15 17 20 22 22 23 26 27 28 30 32 34 34 33 36 37 34 30 26 26 28 25 25 28 30 30 31 31 30 28 25 22 21 20 19 20 20 21 22 22 22 21 20 20 20 20 20 20 21 22 22
11 10 9 10 13 17 20 21 20 17 15 13 14 16 18 20 20 22 25 27 27 26 28 31 32 34 36 37 35 31 28 28 27 24 25 28 29 29 29 29 27 24 20 19 18 18 18 19 20 20 21 21 21 22 22 22 22 22 22 22 22 22 23
12 13 13 13 13 15 19 22 23 21 19 16 15 16 17 18 18 20 24 27 26 25 27 30 32 34 36 36 35 31 27 27 24 23 26 28 28 28 27 27 25 21 18 17 17 18 18 18 18 19 19 20 22 23 23 23 23 23 23 23 23 22 23
12 14 16 18 19 19 19 20 21 23 23 21 20 20 20 19 19 21 24 27 27 27 29 30 31 33 33 33 31 27 26 26 23 23 26 26 26 27 27 26 23 19 18 17 17 18 18 18 18 18 19 20 22 23 23 23 23 23 23 24 24 23 23
14 17 20 21 22 23 22 20 19 22 24 25 24 24 24 23 22 23 25 26 27 28 29 29 31 32 31 31 29 26 27 25 23 24 26 25 26 27 26 25 22 19 18 18 19 20 20 19 19 19 19 20 22 23 23 22 22 22 23 24 24 24 24
17 20 22 21 21 22 24 22 20 21 24 26 26 27 26 24 23 24 25 25 24 26 28 30 32 33 32 32 29 27 25 22 23 25 25 25 26 26 25 24 22 20 20 21 23 23 23 22 21 20 20 20 21 21 20 21 21 21 21 22 23 23 23
20 20 21 21 21 21 24 25 24 22 23 25 26 27 27 24 23 23 24 24 25 27 31 34 35 34 34 34 30 24 20 20 23 24 25 26 26 25 25 23 22 22 23 25 26 26 25 24 24 23 21 21 21 20 19 20 20 20 20 20 21 22 23
20 20 21 22 23 23 26 27 24 22 23 24 24 24 24 22 21 21 23 26 29 32 34 36 35 31 29 31 27 20 18 21 23 23 24 25 25 24 24 23 23 24 25 26 27 27 26 26 25 25 23 22 21 20 20 20 20 20 21 20 21 22 23
21 22 22 23 25 27 28 27 24 23 23 22 21 21 22 20 19 20 24 29 32 32 29 29 28 25 22 22 21 19 20 22 22 23 24 23 24 24 24 24 24 24 24 26 27 27 27 26 26 26 25 24 22 22 21 21 20 20 21 21 22 23 24
22 22 21 22 24 27 28 27 27 25 21 19 19 20 20 18 18 20 24 27 29 27 23 20 21 19 16 16 18 19 20 21 22 22 22 23 24 24 24 24 24 24 25 25 26 26 26 26 26 26 26 25 24 23 22 21 21 21 21 22 22 22 24
18 18 18 17 18 22 24 24 24 22 18 18 20 20 18 16 16 20 22 23 24 22 19 17 17 14 13 15 17 19 19 20 21 22 23 24 25 25 25 26 26 26 26 26 26 26 26 26 26 27 27 27 26 25 24 22 21 21 22 22 22 22 24
17 17 16 15 13 14 17 17 16 17 17 18 19 18 15 13 16 19 21 22 21 18 16 16 14 11 11 13 15 17 18 20 22 23 25 25 26 27 27 27 27 28 28 27 27 26 25 26 27 28 29 28 28 27 25 23 22 22 22 23 23 23 24
17 16 17 17 14 12 14 14 13 14 16 17 17 15 13 13 15 18 18 19 18 16 15 13 9 9 11 13 14 16 18 21 23 25 26 26 28 29 29 29 29 29 29 28 27 27 26 27 28 29 30 30 29 29 27 26 24 23 23 23 24 24 24
17 17 19 21 17 13 13 14 14 15 16 16 15 13 11 12 15 16 15 16 15 14 12 9 8 10 12 13 15 17 20 22 25 26 28 29 30 31 31 31 31 31 30 28 27 27 28 28 29 30 30 31 31 30 28 27 25 23 22 23 23 24 24
18 20 22 21 18 14 14 14 15 17 18 17 15 12 10 12 15 15 14 14 14 11 8 6 8 11 13 15 17 19 22 25 28 30 32 34 35 35 35 34 33 31 28 26 26 27 28 29 30 30 30 30 30 28 27 27 25 22 21 22 23 24 24
19 21 22 22 21 18 16 15 17 19 19 17 14 12 11 13 15 15 15 14 11 9 7 8 10 13 15 17 19 22 24 26 30 33 35 38 38 37 35 35 34 31 27 24 23 25 26 28 29 28 28 28 26 24 25 25 23 21 20 21 23 24 23
19 20 23 24 23 21 19 18 19 21 20 17 15 13 13 15 17 17 16 14 11 10 10 12 13 14 16 18 20 23 25 28 31 33 36 39 40 37 35 35 35 34 31 28 27 27 24 22 26 26 25 25 23 21 21 20 19 19 20 20 22 23 21
21 23 25 26 25 24 24 24 23 23 21 17 16 15 15 17 18 17 16 15 13 11 10 10 12 14 16 19 21 24 27 29 31 33 35 38 39 39 39 38 37 37 37 36 39 36 25 17 21 25 24 23 21 21 21 19 18 19 19 20 21 21 21
23 24 26 27 26 25 26 29 29 25 23 21 18 17 17 17 17 16 15 14 11 8 7 8 10 13 15 18 21 24 27 29 32 35 37 38 39 39 39 37 35 35 34 34 39 40 28 18 18 21 23 22 21 21 24 23 20 19 19 19 20 20 20
23 24 25 24 24 25 27 30 34 29 22 26 22 18 18 17 17 16 15 13 10 9 9 9 10 12 14 17 20 22 26 29 31 34 36 37 38 37 37 37 35 32 30 30 33 33 27 23 21 19 19 21 22 23 25 25 22 20 18 17 18 20 21
25 26 26 26 27 29 30 29 31 32 21 27 28 23 20 19 18 18 16 14 13 11 10 10 11 13 14 17 20 24 27 30 32 33 34 34 35 36 37 37 35 31 30 31 31 27 24 25 26 20 16 18 22 25 26 25 22 19 16 15 18 21 24
27 28 27 28 28 29 30 28 29 30 24 26 28 23 21 21 20 20 19 16 15 13 12 12 14 18 20 21 24 27 30 32 33 33 32 32 33 34 35 35 34 33 31 30 29 27 26 27 27 21 17 19 23 26 26 25 22 18 15 16 19 23 26
26 27 26 27 29 29 31 32 32 32 27 26 27 22 20 22 22 21 18 15 14 13 13 15 21 26 27 26 27 29 31 31 32 32 32 33 33 33 35 35 34 33 31 28 27 27 27 25 22 20 20 22 24 25 25 24 22 20 18 19 22 25 27
23 25 26 28 31 32 33 34 34 33 29 23 26 23 22 24 22 20 19 18 18 17 15 20 26 27 26 26 28 30 30 30 31 32 33 34 34 34 35 35 34 32 30 27 24 23 23 23 21 21 23 23 23 24 25 23 22 22 23 23 25 27 28
21 24 26 28 32 33 32 31 31 29 27 24 23 21 22 25 24 22 22 22 22 22 22 25 26 24 24 27 30 31 31 31 32 33 33 34 35 35 35 34 33 32 29 26 24 23 23 23 22 22 23 24 24 24 24 22 22 24 25 26 28 28 28
22 25 26 27 29 29 26 27 28 27 26 25 24 22 23 25 24 24 24 22 23 25 24 23 23 23 25 28 30 31 32 32 33 34 35 35 35 35 35 34 33 31 29 27 27 27 26 24 23 23 24 26 26 25 24 24 24 25 26 28 30 31 29
23 24 24 24 24 25 24 25 28 28 27 25 25 25 24 23 23 26 27 24 23 25 24 22 23 25 27 28 30 32 32 32 34 35 36 36 36 35 34 34 33 31 30 28 28 28 27 26 25 26 27 27 26 24 24 25 26 27 27 29 30 31 30
Wind_Direction
228 232 235 234 235 240 247 253 258 260 258 250 247 246 239 234 233 232 233 235 236 238 244 254 264 274 285 295 307 318 323 325 328 332 334 336 338 340 341 340 337 332 329 327 327 328 327 328 328 328 327 325 324 323 323 323 320 317 316 313 310 309 309
228 231 234 234 234 237 244 252 258 262 264 258 250 247 244 241 238 238 237 237 237 238 243 252 262 271 278 287 298 308 314 317 322 326 329 332 336 339 341 340 338 334 331 329 328 328 328 328 327 327 326 325 324 323 322 321 319 316 313 310 306 305 307
225 226 231 234 235 239 244 251 259 264 268 269 260 252 248 246 244 243 241 239 238 239 244 252 260 268 275 281 289 298 305 310 315 321 327 330 333 336 339 339 338 337 334 330 328 328 328 327 326 325 325 324 324 323 321 320 318 315 312 309 306 304 305
219 222 229 235 237 242 246 252 258 264 269 274 274 264 254 249 247 244 241 240 240 241 247 254 259 266 273 278 285 293 298 304 311 318 324 327 330 334 337 339 339 338 334 330 328 328 328 327 325 323 324 324 323 322 320 318 316 314 312 311 310 309 308
217 222 226 231 234 238 244 249 256 262 265 270 279 277 261 250 248 246 242 239 240 241 245 252 258 265 271 277 283 289 294 301 309 317 322 325 328 331 335 337 338 337 334 330 328 328 329 328 325 324 325 324 323 322 319 317 316 315 314 314 314 313 312
220 226 228 231 234 236 242 248 255 262 265 268 277 281 270 256 250 251 248 241 240 242 243 249 257 263 269 275 280 286 292 299 308 316 321 323 325 328 332 335 336 336 334 331 329 329 329 329 327 325 325 325 324 321 319 317 316 315 315 314 313 312 312
230 234 234 236 241 244 246 250 257 262 265 267 272 276 271 260 255 256 253 245 241 243 245 249 256 261 267 272 277 282 288 295 305 314 319 320 322 326 330 333 334 335 334 331 329 328 327 328 326 323 325 327 325 321 319 318 317 315 315 313 312 312 312
249 243 236 238 247 253 252 254 258 261 264 267 271 274 270 265 262 260 258 251 245 244 245 249 253 259 265 270 274 279 284 290 301 311 316 316 320 324 327 331 333 334 332 329 327 328 328 327 325 326 329 330 326 322 318 316 315 315 315 313 313 314 313
256 257 239 232 239 249 253 256 258 261 266 270 271 270 268 268 267 265 262 255 251 249 248 249 252 257 262 268 272 276 280 287 301 310 311 312 317 322 325 330 332 331 330 329 330 331 331 329 330 331 332 330 326 322 316 312 312 315 315 314 315 315 313
246 259 246 229 232 244 250 253 258 263 267 268 263 261 263 264 265 265 259 254 255 254 250 251 254 256 261 265 268 272 276 286 303 310 308 309 317 321 325 329 331 331 332 333 334 335 334 332 331 330 330 330 329 327 322 315 314 316 317 317 317 314 310
233 245 249 240 236 244 249 253 260 266 269 267 262 260 261 260 263 264 259 255 256 254 251 253 255 257 261 263 265 268 272 286 302 306 306 311 318 321 325 329 332 334 335 334 334 334 332 329 326 326 329 331 330 327 324 321 319 318 318 318 316 312 308
249 249 253 252 245 244 250 256 262 266 266 264 260 256 255 256 260 262 259 256 256 252 250 253 255 258 261 262 262 262 268 288 301 302 305 312 317 321 325 330 333 336 334 331 329 327 325 324 324 327 329 329 327 324 323 323 322 320 318 316 313 310 308
275 271 267 269 256 247 251 255 257 257 257 258 257 253 254 256 258 259 257 255 256 254 252 253 256 259 259 259 259 258 270 291 298 297 304 311 316 321 326 330 334 335 333 329 327 326 327 327 327 327 326 324 324 324 324 324 322 320 317 315 312 310 307
277 282 285 287 273 260 259 260 258 253 247 246 251 253 254 255 255 255 254 254 257 258 256 257 258 259 259 259 258 261 280 296 296 296 304 311 316 322 327 332 336 338 337 335 332 333 333 329 325 323 321 323 325 324 323 321 320 318 316 314 312 309 307
269 280 286 286 281 276 273 270 265 257 247 240 244 247 249 252 252 251 250 253 258 260 259 261 263 263 262 258 256 268 291 297 293 298 306 312 318 323 327 333 338 341 343 340 335 334 331 328 325 321 321 324 324 323 321 318 317 317 316 314 312 310 310
263 273 280 279 278 277 278 278 272 265 256 248 246 246 248 254 256 255 255 257 263 264 264 266 269 269 263 254 257 279 294 293 292 300 307 313 319 322 326 332 336 338 341 341 339 336 333 330 328 324 322 323 324 324 321 318 318 318 317 315 313 313 314
265 275 278 276 275 274 276 278 274 269 263 258 255 252 252 256 260 261 261 264 269 270 267 267 267 265 257 255 268 285 288 287 294 302 308 314 317 320 324 329 331 331 334 336 336 336 334 332 329 325 323 325 327 327 323 320 320 320 318 316 313 314 316
266 276 273 268 269 269 271 275 273 269 266 265 264 259 255 257 260 262 264 267 269 265 258 255 254 255 256 262 274 285 283 285 295 302 309 313 314 317 322 325 326 327 328 329 329 331 331 328 327 326 326 328 330 329 327 325 324 320 317 314 313 313 315
273 285 279 270 266 265 268 271 272 270 268 269 269 261 253 253 257 263 265 262 258 253 250 251 253 259 266 270 275 280 282 288 296 302 307 309 311 314 318 319 321 323 323 324 325 326 327 325 325 326 327 328 330 331 330 329 325 318 315 315 314 312 313
277 283 278 269 263 264 266 266 267 269 268 268 267 260 252 250 254 259 259 257 254 255 260 264 264 267 273 271 270 277 284 290 296 301 304 306 309 312 314 315 317 318 319 320 321 323 324 324 324 325 326 327 329 330 329 326 322 317 315 316 314 311 312
276 276 273 266 261 262 263 261 261 263 263 261 262 260 253 251 253 255 257 259 260 264 271 271 264 261 262 262 266 277 288 294 297 300 302 305 307 309 311 312 314 315 317 318 318 320 322 323 322 322 323 324 325 325 325 322 319 317 315 314 312 311 312
280 278 278 274 267 263 261 260 259 260 259 257 257 255 251 252 254 255 259 261 261 262 263 255 248 247 251 259 271 283 292 296 297 299 302 305 307 308 309 310 311 313 313 313 314 316 318 320 320 318 318 319 319 321 322 320 317 315 314 312 310 310 309
280 280 286 292 287 271 266 264 259 256 254 252 252 250 247 248 249 250 255 254 247 243 241 234 231 240 256 268 278 287 293 296 298 300 301 304 304 304 306 306 307 308 307 307 309 311 313 316 316 315 315 315 317 318 319 319 318 316 312 308 309 309 308
268 277 286 295 299 285 276 274 263 256 254 251 252 253 245 240 242 244 246 243 232 221 216 219 232 255 269 279 284 289 293 295 296 298 299 301 302 302 303 303 303 303 301 301 305 307 309 312 312 312 314 315 316 315 314 317 320 317 309 305 307 309 307
253 270 281 287 290 283 279 277 266 259 259 254 253 257 247 233 235 238 236 229 218 207 206 223 255 270 278 285 288 292 296 298 299 301 301 301 301 300 300 300 300 298 296 299 304 306 307 308 308 310 313 315 317 314 312 315 317 313 306 303 306 308 305
263 276 283 286 284 276 273 274 267 263 264 259 258 261 245 228 229 230 224 217 212 207 213 239 264 275 285 292 295 301 306 307 309 308 307 306 304 302 300 298 296 294 291 292 298 301 303 305 306 309 313 316 318 316 312 312 311 308 304 302 304 306 303
279 282 286 291 291 282 268 263 265 265 261 255 254 254 238 225 225 221 213 209 209 211 223 249 266 279 291 298 304 310 311 312 313 311 310 308 302 297 295 293 290 285 279 277 282 288 293 299 303 308 311 313 314 313 309 306 303 301 301 302 303 303 302
285 285 285 289 291 285 273 265 263 261 256 247 242 240 231 223 220 216 211 208 209 220 239 259 277 292 301 305 309 311 311 312 312 309 308 305 300 298 300 299 296 292 285 283 285 280 277 291 303 305 307 307 305 303 301 299 298 299 301 302 302 302 300
287 285 282 283 283 281 279 274 262 247 238 233 228 223 221 222 221 218 216 215 217 232 254 274 291 300 305 307 308 310 310 310 308 304 304 305 305 306 308 307 307 306 300 299 301 292 275 279 301 301 298 298 297 297 297 295 297 300 299 298 300 298 295
287 283 281 282 281 280 280 278 268 245 214 201 210 216 217 223 223 217 216 218 222 237 256 274 286 293 300 304 307 309 309 307 305 304 305 307 306 305 304 304 308 310 306 306 310 305 289 276 286 291 289 290 289 291 294 293 295 296 293 292 293 292 292
281 277 276 274 270 271 271 273 278 269 223 188 193 212 216 215 212 207 210 216 219 232 246 262 281 292 300 304 306 307 306 303 303 303 304 305 305 303 302 304 306 307 305 308 315 313 299 281 275 276 280 284 282 283 288 289 289 290 290 288 285 285 290
276 272 272 270 268 271 269 267 279 285 248 193 187 198 201 199 200 205 214 221 224 235 255 272 290 298 298 299 302 304 305 304 304 303 302 302 302 300 298 301 303 301 302 307 311 311 304 294 289 286 284 281 277 278 283 285 283 284 289 286 280 282 291
275 270 273 277 275 276 277 275 283 292 268 214 194 189 187 193 205 214 220 227 234 248 267 281 296 303 301 302 306 309 309 309 307 306 305 303 301 299 297 300 302 301 302 306 307 306 305 303 300 297 291 285 281 281 283 284 280 278 284 284 281 286 294
276 272 277 283 282 282 284 283 285 291 274 226 195 188 196 205 214 220 224 233 246 256 270 288 301 304 302 304 309 311 310 309 308 308 308 306 303 301 299 300 301 302 304 306 305 303 304 303 300 293 287 287 288 285 286 288 283 274 276 284 287 291 296
278 276 278 282 281 282 284 283 282 287 277 233 195 194 215 221 220 225 230 234 239 246 268 291 298 297 295 301 310 313 312 312 312 312 312 311 309 307 305 303 303 305 306 306 305 304 303 302 297 288 283 286 289 287 289 295 290 278 276 285 291 293 294
281 278 277 279 281 280 282 281 276 272 266 241 208 206 229 234 227 230 236 240 248 260 276 287 289 287 291 301 311 316 315 316 318 318 317 316 315 313 310 306 305 305 306 306 305 304 305 302 295 285 282 284 286 285 286 290 289 283 282 288 292 293 294
281 277 276 279 281 279 278 278 268 249 237 230 223 226 239 237 232 241 254 264 273 278 280 281 281 283 289 298 308 314 315 315 318 320 321 320 319 316 312 308 306 306 304 303 302 304 305 302 294 286 283 285 286 286 285 287 288 288 288 289 291 292 293
276 275 275 275 275 273 272 270 260 242 230 229 233 237 241 245 254 268 275 278 278 275 274 276 279 282 288 295 303 309 312 314 316 319 321 322 321 318 313 309 306 305 303 302 302 304 303 300 294 290 289 289 289 289 289 289 289 289 289 289 290 291 291
Height
3176 3177 3177 3178 3179 3180 3181 3182 3183 3184 3187 3189 3190 3192 3193 3194 3194 3195 3196 3197 3198 3198 3198 3199 3199 3200 3200 3200 3200 3199 3199 3199 3198 3197 3196 3195 3193 3192 3189 3188 3186 3185 3183 3182 3181 3179 3178 3177 3176 3175 3174 3173 3172 3171 3170 3168 3167 3166 3166 3165 3164 3163 3163
3175 3175 3176 3176 3177 3178 3179 3180 3181 3182 3184 3186 3188 3190 3191 3192 3192 3193 3194 3195 3196 3196 3196 3197 3197 3198 3198 3198 3198 3197 3197 3197 3196 3196 3195 3193 3192 3190 3188 3186 3184 3183 3181 3180 3179 3178 3176 3175 3174 3173 3172 3171 3170 3169 3167 3166 3165 3165 3164 3163 3162 3161 3161
3172 3173 3174 3174 3175 3176 3177 3178 3179 3180 3182 3184 3186 3188 3189 3190 3191 3192 3192 3193 3194 3195 3195 3195 3195 3195 3196 3196 3196 3195 3195 3195 3194 3194 3193 3191 3190 3188 3186 3184 3182 3181 3179 3178 3177 3176 3175 3174 3172 3171 3170 3169 3167 3166 3165 3164 3163 3162 3162 3161 3160 3159 3159
3169 3171 3172 3173 3173 3174 3174 3175 3176 3178 3180 3181 3183 3185 3187 3188 3190 3190 3191 3191 3192 3193 3193 3193 3193 3193 3194 3194 3194 3193 3193 3192 3192 3191 3191 3189 3187 3186 3184 3182 3180 3179 3178 3176 3175 3174 3173 3172 3170 3169 3168 3166 3165 3164 3162 3161 3160 3160 3159 3159 3158 3157 3156
3168 3169 3170 3171 3171 3172 3173 3173 3174 3176 3177 3179 3181 3183 3185 3186 3187 3188 3189 3189 3189 3191 3191 3191 3191 3191 3191 3191 3191 3191 3191 3190 3189 3189 3188 3186 3185 3183 3181 3180 3178 3177 3176 3175 3173 3172 3171 3169 3168 3167 3165 3164 3163 3161 3160 3159 3158 3157 3156 3156 3155 3154 3153
3167 3168 3169 3170 3170 3170 3171 3172 3172 3174 3175 3177 3178 3180 3182 3183 3184 3186 3187 3187 3187 3188 3189 3189 3189 3189 3189 3189 3189 3188 3188 3187 3187 3186 3185 3184 3183 3181 3179 3177 3176 3175 3174 3172 3171 3170 3168 3167 3166 3164 3163 3162 3160 3159 3158 3156 3156 3155 3154 3153 3152 3152 3150
3166 3167 3168 3169 3169 3169 3170 3171 3171 3172 3173 3175 3176 3177 3178 3180 3181 3182 3184 3184 3185 3185 3186 3187 3187 3187 3187 3187 3186 3186 3185 3184 3184 3183 3183 3182 3180 3179 3177 3175 3173 3172 3171 3170 3169 3168 3167 3165 3164 3163 3161 3159 3158 3156 3155 3154 3153 3152 3151 3151 3150 3149 3148
3164 3165 3166 3167 3168 3168 3168 3169 3170 3171 3171 3172 3173 3174 3175 3176 3178 3179 3180 3181 3182 3182 3183 3184 3184 3185 3184 3184 3184 3183 3183 3182 3181 3181 3180 3180 3178 3177 3175 3173 3171 3169 3168 3167 3167 3166 3164 3163 3162 3161 3159 3157 3156 3154 3153 3152 3151 3150 3149 3148 3147 3147 3146
3163 3164 3165 3166 3166 3166 3166 3167 3167 3168 3169 3170 3170 3171 3172 3173 3174 3175 3176 3178 3178 3179 3180 3181 3182 3182 3182 3182 3182 3181 3180 3180 3179 3179 3179 3178 3176 3175 3173 3170 3168 3167 3166 3165 3164 3162 3161 3160 3159 3157 3156 3155 3154 3153 3152 3150 3149 3148 3147 3146 3145 3144 3143
3161 3162 3163 3164 3165 3165 3165 3165 3166 3166 3167 3167 3167 3168 3169 3169 3170 3171 3172 3174 3175 3176 3177 3178 3179 3180 3179 3180 3179 3179 3178 3177 3177 3177 3177 3175 3174 3172 3170 3168 3166 3164 3162 3160 3159 3158 3157 3156 3155 3154 3154 3153 3152 3151 3150 3148 3147 3146 3145 3144 3143 3142 3141
3159 3160 3161 3162 3163 3163 3163 3163 3163 3164 3164 3165 3165 3165 3166 3167 3167 3167 3169 3171 3172 3173 3174 3175 3176 3177 3177 3177 3177 3177 3176 3175 3175 3175 3174 3172 3171 3169 3167 3165 3163 3161 3159 3157 3156 3156 3155 3154 3153 3152 3151 3150 3149 3148 3147 3146 3145 3144 3143 3142 3141 3139 3138
3157 3158 3158 3159 3160 3161 3160 3161 3161 3162 3163 3163 3163 3163 3163 3164 3164 3165 3166 3167 3169 3170 3171 3172 3173 3174 3174 3174 3175 3175 3173 3173 3173 3173 3171 3170 3168 3166 3164 3162 3161 3159 3158 3157 3156 3156 3155 3154 3152 3151 3149 3148 3147 3146 3145 3144 3143 3142 3141 3140 3138 3137 3136
3155 3156 3156 3157 3158 3158 3158 3158 3159 3160 3161 3161 3161 3161 3161 3162 3162 3162 3163 3163 3165 3167 3168 3168 3169 3171 3171 3172 3172 3172 3171 3171 3171 3170 3169 3168 3166 3164 3162 3161 3159 3159 3158 3157 3156 3154 3153 3152 3150 3149 3148 3147 3146 3144 3142 3141 3140 3139 3138 3137 3136 3135 3134
3153 3154 3154 3154 3155 3155 3156 3156 3156 3157 3158 3159 3159 3159 3159 3159 3160 3160 3160 3160 3161 3163 3164 3165 3166 3167 3169 3169 3169 3169 3169 3169 3168 3167 3166 3165 3163 3161 3160 3159 3157 3156 3155 3154 3153 3152 3151 3150 3149 3148 3147 3145 3144 3142 3140 3139 3138 3137 3135 3134 3133 3132 3131
3150 3151 3151 3152 3152 3152 3153 3153 3154 3154 3155 3156 3156 3156 3157 3157 3157 3158 3158 3157 3157 3158 3159 3161 3162 3163 3165 3166 3166 3167 3167 3166 3165 3164 3163 3161 3160 3158 3157 3156 3155 3154 3153 3153 3152 3151 3150 3149 3147 3146 3145 3143 3142 3140 3138 3137 3136 3134 3133 3131 3130 3130 3129
3147 3148 3149 3149 3149 3149 3149 3150 3150 3151 3151 3152 3152 3152 3153 3154 3154 3155 3155 3155 3155 3155 3156 3157 3158 3159 3160 3161 3163 3164 3164 3163 3162 3161 3160 3158 3156 3155 3154 3153 3153 3153 3152 3151 3150 3149 3148 3147 3145 3144 3142 3141 3140 3138 3136 3135 3133 3132 3130 3129 3128 3127 3125
3145 3145 3145 3146 3146 3145 3145 3146 3147 3147 3147 3148 3149 3149 3149 3149 3150 3151 3152 3152 3152 3152 3152 3153 3154 3155 3156 3158 3160 3161 3161 3160 3159 3158 3156 3155 3153 3152 3152 3151 3151 3151 3150 3149 3148 3147 3145 3144 3143 3141 3140 3138 3137 3135 3134 3132 3131 3130 3128 3127 3125 3124 3122
3143 3143 3143 3143 3143 3143 3142 3142 3143 3144 3144 3144 3145 3145 3145 3146 3146 3147 3148 3148 3149 3150 3150 3151 3152 3153 3155 3157 3158 3159 3158 3157 3156 3155 3153 3152 3151 3150 3150 3149 3149 3148 3147 3146 3145 3144 3143 3142 3141 3139 3137 3135 3134 3133 3131 3130 3129 3127 3126 3124 3123 3121 3120
3141 3141 3140 3140 3140 3140 3140 3139 3139 3140 3141 3141 3141 3142 3142 3143 3143 3144 3145 3145 3146 3147 3149 3150 3151 3152 3154 3155 3156 3156 3155 3155 3154 3153 3151 3150 3149 3148 3147 3147 3146 3145 3145 3144 3142 3141 3140 3139 3138 3136 3134 3132 3131 3130 3128 3127 3126 3125 3123 3121 3120 3118 3117
3138 3138 3138 3137 3137 3137 3137 3137 3137 3137 3138 3138 3138 3139 3139 3140 3141 3141 3142 3142 3142 3144 3147 3149 3150 3151 3152 3153 3154 3154 3153 3153 3151 3150 3149 3148 3147 3146 3145 3144 3144 3143 3142 3141 3140 3139 3138 3136 3135 3134 3132 3130 3128 3126 3126 3125 3124 3122 3120 3118 3117 3115 3114
3135 3135 3135 3135 3134 3133 3133 3134 3134 3135 3135 3136 3136 3136 3136 3137 3137 3137 3137 3138 3139 3142 3145 3147 3148 3149 3150 3151 3152 3152 3151 3150 3149 3148 3147 3146 3144 3143 3142 3142 3141 3140 3139 3138 3137 3136 3135 3133 3132 3130 3129 3127 3125 3124 3123 3122 3121 3119 3117 3116 3114 3112 3111
3131 3131 3132 3132 3131 3130 3130 3130 3131 3132 3133 3133 3132 3133 3133 3134 3134 3134 3134 3136 3138 3141 3143 3144 3145 3147 3148 3148 3149 3149 3148 3147 3146 3145 3144 3143 3142 3140 3139 3139 3138 3137 3136 3135 3134 3133 3132 3131 3129 3127 3126 3124 3122 3121 3120 3119 3118 3116 3114 3113 3111 3109 3108
3128 3128 3128 3129 3129 3128 3127 3127 3128 3128 3129 3129 3129 3129 3130 3131 3131 3132 3133 3134 3136 3139 3140 3141 3143 3144 3146 3146 3146 3146 3145 3144 3143 3142 3141 3140 3138 3137 3136 3135 3134 3134 3132 3131 3131 3130 3129 3128 3126 3125 3123 3121 3119 3117 3117 3117 3116 3114 3112 3110 3108 3106 3105
3125 3125 3126 3126 3127 3126 3126 3125 3126 3126 3126 3126 3126 3126 3127 3128 3129 3130 3130 3131 3133 3135 3137 3139 3141 3142 3143 3144 3144 3143 3142 3141 3140 3139 3138 3136 3135 3134 3133 3132 3131 3130 3129 3128 3128 3127 3126 3125 3123 3121 3120 3118 3116 3114 3113 3113 3113 3111 3109 3107 3105 3104 3102
3123 3123 3124 3125 3125 3125 3124 3123 3123 3123 3123 3122 3122 3123 3125 3126 3126 3127 3128 3129 3130 3132 3134 3136 3138 3139 3140 3140 3140 3139 3139 3138 3137 3136 3134 3133 3131 3130 3130 3129 3128 3127 3126 3125 3125 3124 3123 3122 3120 3118 3116 3114 3112 3111 3110 3109 3109 3108 3106 3104 3102 3101 3099
3122 3122 3122 3123 3123 3123 3122 3121 3121 3120 3120 3120 3120 3121 3122 3123 3124 3124 3125 3126 3127 3129 3131 3133 3135 3136 3136 3136 3136 3136 3135 3134 3133 3131 3130 3128 3127 3126 3126 3125 3124 3123 3122 3122 3121 3119 3119 3118 3116 3115 3113 3111 3110 3108 3107 3106 3105 3104 3102 3100 3099 3098 3096
3119 3120 3120 3120 3121 3121 3120 3119 3118 3117 3117 3116 3117 3119 3120 3121 3121 3122 3123 3123 3125 3126 3128 3130 3132 3132 3133 3133 3133 3132 3132 3131 3129 3127 3126 3124 3122 3121 3121 3120 3119 3117 3115 3115 3114 3114 3113 3113 3112 3111 3110 3108 3107 3105 3104 3103 3102 3101 3099 3098 3097 3095 3094
3117 3118 3118 3118 3119 3119 3118 3118 3117 3115 3114 3114 3115 3116 3118 3118 3119 3120 3121 3121 3123 3124 3126 3127 3128 3129 3129 3130 3130 3129 3129 3128 3126 3125 3122 3119 3117 3117 3118 3117 3115 3113 3111 3110 3109 3107 3107 3107 3108 3107 3107 3105 3104 3103 3101 3101 3100 3098 3096 3095 3094 3093 3092
3114 3115 3115 3115 3116 3116 3116 3115 3113 3111 3110 3110 3112 3114 3115 3117 3118 3118 3119 3120 3121 3122 3123 3124 3125 3125 3126 3126 3126 3126 3125 3124 3123 3121 3119 3117 3115 3115 3116 3115 3113 3111 3110 3108 3106 3102 3101 3102 3103 3104 3104 3102 3101 3100 3098 3097 3097 3095 3093 3093 3092 3091 3089
3112 3112 3111 3112 3113 3113 3113 3112 3109 3107 3105 3105 3108 3112 3113 3115 3116 3117 3117 3118 3119 3120 3121 3122 3123 3124 3124 3124 3124 3123 3122 3121 3119 3117 3115 3114 3113 3113 3113 3111 3109 3108 3106 3105 3102 3100 3099 3099 3098 3099 3099 3099 3098 3096 3095 3094 3093 3092 3091 3090 3089 3088 3086
3109 3109 3109 3109 3109 3109 3109 3108 3107 3107 3105 3102 3104 3109 3112 3113 3114 3115 3116 3117 3118 3119 3120 3121 3122 3123 3123 3123 3122 3121 3120 3119 3117 3114 3113 3112 3110 3110 3109 3107 3106 3104 3103 3102 3100 3098 3096 3096 3094 3092 3093 3094 3095 3093 3091 3090 3090 3088 3087 3087 3087 3085 3084
3106 3106 3106 3106 3106 3106 3107 3106 3106 3107 3106 3102 3101 3104 3108 3111 3113 3114 3116 3117 3117 3117 3118 3119 3119 3120 3120 3120 3120 3119 3117 3116 3114 3112 3111 3109 3108 3106 3105 3103 3102 3101 3099 3098 3097 3095 3094 3094 3093 3088 3087 3089 3090 3089 3088 3087 3086 3085 3084 3084 3083 3082 3081
3104 3103 3103 3103 3104 3103 3104 3104 3104 3106 3107 3104 3100 3101 3104 3108 3112 3113 3113 3114 3115 3115 3116 3116 3116 3116 3116 3116 3116 3115 3113 3112 3110 3109 3107 3106 3104 3102 3101 3099 3098 3097 3095 3094 3093 3092 3090 3090 3089 3086 3084 3085 3086 3085 3084 3083 3082 3081 3081 3080 3080 3079 3077
3101 3101 3101 3101 3101 3101 3101 3101 3101 3102 3104 3103 3101 3102 3105 3107 3109 3110 3111 3112 3112 3112 3112 3112 3112 3113 3113 3112 3112 3111 3109 3108 3107 3105 3103 3102 3100 3098 3097 3095 3094 3092 3090 3089 3089 3088 3086 3085 3084 3083 3082 3082 3081 3080 3080 3079 3078 3077 3077 3076 3075 3075 3074
3098 3099 3099 3099 3098 3098 3097 3097 3096 3097 3100 3101 3101 3102 3103 3105 3106 3107 3108 3107 3106 3106 3108 3109 3110 3110 3110 3109 3108 3107 3105 3104 3103 3101 3099 3097 3095 3094 3092 3090 3089 3087 3086 3085 3084 3084 3083 3081 3080 3079 3078 3078 3077 3076 3075 3075 3074 3074 3073 3072 3071 3071 3070
3096 3096 3097 3097 3096 3095 3095 3094 3093 3094 3096 3099 3100 3101 3101 3102 3104 3104 3104 3103 3103 3105 3107 3108 3107 3107 3106 3105 3103 3101 3100 3099 3098 3096 3094 3092 3091 3089 3087 3085 3084 3083 3081 3080 3080 3080 3079 3078 3077 3076 3074 3074 3073 3072 3071 3071 3071 3070 3069 3068 3067 3066 3066
3093 3093 3094 3094 3093 3093 3092 3092 3092 3093 3093 3095 3097 3099 3099 3099 3100 3101 3101 3103 3104 3104 3104 3104 3104 3103 3102 3101 3099 3098 3097 3096 3094 3092 3090 3088 3087 3085 3083 3081 3080 3079 3078 3077 3076 3075 3074 3074 3073 3072 3071 3070 3069 3068 3067 3067 3066 3065 3064 3063 3062 3062 3061
3090 3091 3091 3091 3091 3091 3090 3090 3090 3091 3091 3092 3094 3094 3094 3095 3097 3099 3100 3101 3101 3101 3101 3100 3100 3099 3098 3097 3096 3095 3094 3092 3091 3089 3087 3085 3083 3081 3079 3077 3076 3075 3074 3073 3072 3071 3070 3069 3069 3068 3067 3066 3064 3063 3062 3062 3061 3060 3059 3058 3057 3057 3056